Showing default

INMARSAT 5-F2, 40384

Orbit data source: Space-Track

INMARSAT 5-F2, 40384 is a payload satellite owned by INMARSAT-Ltd (UK) in GEO that was launched on Sun, 01 Feb 2015 UTC via a PROTON-M/BRIZ-M launch vehicle from the Tyuratam Missile And Space Complex (TTMTR). Payloads include a variety of satellites, spacecraft, and rockets equipped with specific instruments for various scientific and technological missions. These include communications satellites like Starlink; space stations such as the ISS; scientific satellites like the Hubble; Earth observation satellites from companies like Planet Labs, Umbra, and HawkEye 360; GPS; miniature CubeSats for education and research; and military/defense satellites.

Loading next visibility...
INMARSAT 5-F2 details
Identifier
40384, 2015-005A
Orbit
GEO
Last TLE update2 days ago
Origin
Flag of UKINMARSAT-Ltd (UK / IM)
ManufacturerBoeing/ES
MissionOperational Commercial Communications
Bus & MotorBSS-702HP, R-4D
Mass6,070 kg wet, 3,700 kg dry
Launch date (UTC)
2015-02-01 (10 years ago)
Launch vehicle
PROTON-M/BRIZ-M
Launch site
Tyuratam Missile And Space Complex (TTMTR)
Object type
Payload
Rocket body
Debris
Shape & HBRBox + 2 Pan, 33.8 m
Radar Cross Section53.751 m², Large (>1 m²)

Expand to show TLE details & history

TLE from 2 days ago
0 INMARSAT 5-F2
1 40384U 15005A   24359.31716028 -.00000262  00000-0  00000+0 0  9991
2 40384   0.0194  55.0343 0000477 270.6069 186.8582  1.00270452 36269
Epoch: 2024-12-24T07:36Z
Definitive object data (Epoch: 2024-12-24T07:36:42.648Z)
Latitude0.0252°
Longitude-55.01034°
Altitude35,788.448 km
Speed3.075 km/s
True Right ascension10h 09m 58s
True Declination0° 01' 31"
Sunlit
Object was in daylight at TLE epoch
Visualization TLE readout
Latitude-0.01654°
Longitude32.45319°
Altitude35,786.548 km
Speed3.075 km/s
Apparent Right ascension16h 21m 49s
Apparent Declination-5° 56' 46"
Sunlit
Object is in daylight
Visualization observer readout
Local Sidereal Time12:39:29
Azimuth118.21° SE
Elevation21.387°
Doppler factor1
Orbital elements
Apogee altitude35,790.05 km
Perigee altitude35,786.028 km
Semi-major axis42,166.176 km
Eccentricity0.0000477
Inclination0.0194°
RAAN55.0343°
Arg. of periapsis270.6069°
True anomaly186.85755°
Mean anomaly186.8582°
Eccentric anomaly186.85787°
Mean motion0.25067 °/min
BSTARUnknown
Orbital period1436.17 mins
Loading historical data...
40384 neighbors
Authenticating...
Loading maneuver chart data...
Loading historical data...
Loading historical data...
Loading historical data...
Loading historical data...
Loading historical data...
Loading historical data...
Loading historical data...
Other satellites on launch #5 in the year 2015 (2015-02-01 UTC)

INMARSAT 5-F2 Visibility forecast

Observer location: undefined°, undefined

Span
Click to sort rows by Start time (UTC) header in descending order
Start Az.
Max El. time (UTC)
Max El. Az.
Max El.
End time (UTC)
End Az.
1440 mins2024-12-26 13:17:49.937Z118.224° SE2024-12-27 07:09:49.937Z118.185° SE20.063°2024-12-27 13:17:49.937Z118.233° SE
|